Regional Weather Roundup
Issued by NWS

Home | Current Version | Previous Version | Graphics & Text | Print | Product List | Glossary On
Versions: 1 2 3 4 5 6 7 8 9 10 11 12 13 14 15 16 17 18 19 20 21 22 23 24 25 26 27 28 29 30 31 32 33 34 35 36 37 38 39 40 41 42 43 44 45 46 47 48 49 50
000
ASUS45 KABQ 220710
RWRNM
WEATHER ROUNDUP FOR NEW MEXICO
NATIONAL WEATHER SERVICE ALBUQUERQUE NM
100 AM MDT MON SEP 22 2014

NOTE: "FAIR" MEANS FEW OR NO CLOUDS BELOW 12,000 FEET AGL WITH NO
       SIGNIFICANT WEATHER OR OBSTRUCTIONS TO VISION.

      THIS PRODUCT IS RELEASED AS TWO VERSIONS.  ONE VERSION NEAR
      THE TOP OF THE HOUR CONTAINING PRELIMINARY DATA FROM ALBUQUERQUE
      AND OTHER STATIONS.  A FINAL VERSION WITH ADDITIONAL DATA IS
      ISSUED ABOUT 10 MINUTES AFTER THE HOUR.

NMZ501-503-504-510>518-220800-
NORTHWEST PLATEAU/NORTHCENTRAL MOUNTAINS

CITY           SKY/WX    TMP DP  RH WIND       PRES   REMARKS
FARMINGTON     CLOUDY    66  54  65 NE5       30.26R
LOS ALAMOS     CLOUDY    60  53  78 S10G17    30.44S
SANTA FE       MOCLDY    62  54  74 S10       30.39R
TAOS           CLOUDY    63  46  55 SE8       30.41F
ANGEL FIRE     CLOUDY    55  48  80 S9        30.52S

$$
NMZ402-403-502-505>509-220800-
WESTCENTRAL MOUNTAINS/SOUTHWEST MOUNTAINS

CITY           SKY/WX    TMP DP  RH WIND       PRES   REMARKS
GALLUP         LGT RAIN  63  57  81 CALM      30.33R
GRANTS         CLEAR     57  55  94 S9        30.35F
SILVER CITY    CLOUDY    68  63  83 SE9       30.28S

$$
NMZ407-409-411-412-220800-
SOUTHERN DESERTS

CITY           SKY/WX    TMP DP  RH WIND       PRES   REMARKS
LORDSBURG      FAIR      70  63  78 MISG      30.17S
DEMING         LGT RAIN  67  64  90 E13       30.20S
LAS CRUCES     CLOUDY    70  61  73 SE12      30.22R
HOLLOMAN AFB   CLOUDY    69  63  83 N6        30.18S
ALAMOGORDO     CLOUDY    70  63  78 NE8       30.20S
T OR C         CLOUDY    69  59  70 N7        30.24R

$$
NMZ519>523-220800-
CENTRAL VALLEYS/CENTRAL HIGHLANDS

CITY           SKY/WX    TMP DP  RH WIND       PRES   REMARKS
ALBUQUERQUE    MOCLDY    68  54  60 E16       30.30S
DOUBLE EAGLE   PTCLDY    62  54  74 E6        30.34S
MORIARTY ARPT  CLOUDY    61  55  80 S6        30.40S
CLINES CORNERS CLOUDY    57  54  89 SE9       30.41F
BELEN          FAIR      65  56  70 S5        30.29S
SOCORRO        FAIR      65  60  82 CALM      30.26F

$$
NMZ524>526-539-540-220800-
SOUTHCENTRAL MOUNTAINS

CITY           SKY/WX    TMP DP  RH WIND       PRES   REMARKS
RUIDOSO        NOT AVBL

$$
NMZ527>531-220800-
NORTHEAST HIGHLANDS/NORTHEAST PLAINS

CITY           SKY/WX    TMP DP  RH WIND       PRES   REMARKS
LAS VEGAS      RAIN      57  55  93 S9        30.44S FOG
RATON          HVY RAIN  59  58  96 S14       30.41S FOG
CLAYTON        CLOUDY    60  54  80 S6        30.37S

$$
NMZ532>537-220800-
EASTCENTRAL PLAINS

CITY           SKY/WX    TMP DP  RH WIND       PRES   REMARKS
TUCUMCARI      PTCLDY    65  62  90 E6        30.30S
CANNON AFB     PTCLDY    64  61  88 SE7       30.32R
CLOVIS AIRPORT   N/A     64  61  88 E12       30.34R

$$
NMZ028-029-538-220800-
SOUTHEAST PLAINS

CITY           SKY/WX    TMP DP  RH WIND       PRES   REMARKS
ROSWELL        CLOUDY    68  65  90 E3        30.26S
CARLSBAD       LGT RAIN  69 N/A N/A CALM      30.22F
HOBBS          CLOUDY    66  66 100 NE6       30.27S


$$


USA.gov is the U.S. government's official web portal to all federal, state and local government web resources and services.